This is the latest recevied weather packets stored in our database for station/object KC3QLX. If no packets are shown the sender has not sent any weather packets the latest 10 day(s).
| Time | Temp. | Humidity | Pressure | Rain* | Wind** | Luminosity | Snow |
|---|---|---|---|---|---|---|---|
| 1778077435 | 15.56° C | 97% | 1007.8 hPa | 3.05 mm | - | 91 W/m² | - |
| 1778077133 | 15.56° C | 97% | 1007.9 hPa | 3.05 mm | - | 85 W/m² | - |
| 1778076831 | 15.56° C | 97% | 1007.8 hPa | 1.27 mm | - | 89 W/m² | - |
| 1778076529 | 15.56° C | 96% | 1008.1 hPa | 1.78 mm | - | 111 W/m² | - |
| 1778076225 | 15.56° C | 96% | 1008.1 hPa | 3.56 mm | - | 76 W/m² | - |
| 1778075922 | 16.11° C | 96% | 1008.1 hPa | 1.78 mm | - | 81 W/m² | - |
| 1778075619 | 15.56° C | 96% | 1008.1 hPa | 0 mm | - | 68 W/m² | - |
| 1778075315 | 15.56° C | 96% | 1008 hPa | 0 mm | - | 58 W/m² | - |
| 1778075011 | 15.56° C | 95% | 1008 hPa | 1.27 mm | - | 44 W/m² | - |
| 1778074709 | 15.56° C | 96% | 1007.7 hPa | 1.27 mm | - | 57 W/m² | - |
| 1778074405 | 15.56° C | 96% | 1008 hPa | 0 mm | - | 62 W/m² | - |
| 1778074102 | 15.56° C | 96% | 1008.1 hPa | 1.78 mm | - | 79 W/m² | - |
| 1778073799 | 16.11° C | 95% | 1008 hPa | 3.05 mm | - | 104 W/m² | - |
| 1778073497 | 16.11° C | 93% | 1008.2 hPa | 1.27 mm | - | 67 W/m² | - |
| 1778073193 | 16.11° C | 92% | 1008.3 hPa | 0 mm | - | 38 W/m² | - |
| 1778072890 | 16.11° C | 91% | 1008.2 hPa | 1.78 mm | - | 39 W/m² | - |
| 1778072587 | 16.11° C | 90% | 1008.4 hPa | 1.78 mm | - | 39 W/m² | - |
| 1778072285 | 16.67° C | 90% | 1008.4 hPa | 0 mm | - | 37 W/m² | - |
| 1778071983 | 16.67° C | 89% | 1008.7 hPa | 0 mm | - | 35 W/m² | - |
| 1778071681 | 16.67° C | 88% | 1008.5 hPa | 0 mm | - | 36 W/m² | - |
| 1778071378 | 16.67° C | 89% | 1008.2 hPa | 0 mm | - | 40 W/m² | - |
| 1778071075 | 16.67° C | 88% | 1008.4 hPa | 0 mm | - | 44 W/m² | - |
| 1778070774 | 16.67° C | 88% | 1008.3 hPa | 0 mm | - | 49 W/m² | - |
| 1778070470 | 16.67° C | 88% | 1008.3 hPa | 1.27 mm | - | 38 W/m² | - |
| 1778070167 | 17.22° C | 86% | 1008.2 hPa | 1.27 mm | - | 31 W/m² | - |
* Rain latest hour (hover to see other rain measurements)
** Current wind speed in m/s (hover to see current wind gust speed)